Stündliche Wetter Abasnurskiy

Heute, 18 Juni, Freitag

Zeit Temperatur Niederschläge Wind Luftdruck Luftfeuchtigkeit
00:00 +10°C° 0 mm 3 m/S 754 mmHg 79%
01:00 +9°C° 0 mm 3 m/S 754 mmHg 79%
02:00 +8°C° 0 mm 3 m/S 755 mmHg 79%
03:00 +8°C° 0 mm 2 m/S 755 mmHg 79%
04:00 +9°C° 0 mm 3 m/S 756 mmHg 76%
05:00 +10°C° 0 mm 3 m/S 756 mmHg 73%
06:00 +11°C° 0 mm 4 m/S 756 mmHg 70%
07:00 +12°C° 0 mm 4 m/S 757 mmHg 66%
08:00 +14°C° 0 mm 4 m/S 757 mmHg 61%
09:00 +15°C° 0 mm 4 m/S 757 mmHg 57%
10:00 +17°C° 0 mm 4 m/S 757 mmHg 53%
11:00 +18°C° 0 mm 4 m/S 757 mmHg 50%
12:00 +19°C° 0 mm 4 m/S 757 mmHg 46%
13:00 +19°C° 0 mm 3 m/S 757 mmHg 45%
14:00 +20°C° 0 mm 3 m/S 757 mmHg 45%
15:00 +20°C° 0 mm 3 m/S 757 mmHg 45%
16:00 +20°C° 0 mm 2 m/S 757 mmHg 50%
17:00 +21°C° 0 mm 1 m/S 756 mmHg 56%
18:00 +20°C° 0 mm 1 m/S 756 mmHg 61%
19:00 +19°C° 0 mm 1 m/S 756 mmHg 64%
20:00 +16°C° 0 mm 2 m/S 756 mmHg 67%
21:00 +14°C° 0 mm 2 m/S 756 mmHg 70%
22:00 +14°C° 0 mm 2 m/S 756 mmHg 71%
23:00 +12°C° 0 mm 3 m/S 756 mmHg 72%

Morgen, 19 Juni, Samstag

Zeit Temperatur Niederschläge Wind Luftdruck Luftfeuchtigkeit
00:00 +12°C° 0 mm 3 m/S 756 mmHg 74%
01:00 +12°C° 0 mm 3 m/S 756 mmHg 78%
02:00 +11°C° 0 mm 3 m/S 756 mmHg 82%
03:00 +11°C° 0 mm 3 m/S 756 mmHg 86%
04:00 +13°C° 0 mm 3 m/S 756 mmHg 83%
05:00 +14°C° 0 mm 4 m/S 756 mmHg 79%
06:00 +17°C° 0 mm 4 m/S 756 mmHg 75%
07:00 +19°C° 0 mm 4 m/S 755 mmHg 70%
08:00 +21°C° 0 mm 5 m/S 755 mmHg 66%
09:00 +23°C° 0 mm 5 m/S 755 mmHg 61%
10:00 +24°C° 0 mm 6 m/S 754 mmHg 57%
11:00 +26°C° 0 mm 6 m/S 754 mmHg 54%
12:00 +28°C° 0 mm 6 m/S 754 mmHg 50%
13:00 +28°C° 0 mm 6 m/S 753 mmHg 50%
14:00 +28°C° 0 mm 6 m/S 753 mmHg 50%
15:00 +29°C° 0 mm 6 m/S 752 mmHg 50%
16:00 +28°C° 0 mm 6 m/S 752 mmHg 53%
17:00 +27°C° 0 mm 5 m/S 752 mmHg 57%
18:00 +27°C° 0 mm 5 m/S 752 mmHg 60%
19:00 +25°C° 0 mm 5 m/S 752 mmHg 64%
20:00 +23°C° 0 mm 5 m/S 752 mmHg 68%
21:00 +22°C° 0 mm 4 m/S 752 mmHg 71%
22:00 +21°C° 0 mm 4 m/S 752 mmHg 75%
23:00 +20°C° 0 mm 4 m/S 752 mmHg 79%

übermorgen, 20 Juni, Sonntag

Zeit Temperatur Niederschläge Wind Luftdruck Luftfeuchtigkeit
00:00 +20°C° 0 mm 4 m/S 752 mmHg 82%
01:00 +19°C° 0 mm 4 m/S 752 mmHg 86%
02:00 +18°C° 0 mm 3 m/S 752 mmHg 90%
03:00 +17°C° 0 mm 3 m/S 752 mmHg 93%
04:00 +19°C° 0 mm 3 m/S 753 mmHg 89%
05:00 +20°C° 0 mm 3 m/S 753 mmHg 85%
06:00 +21°C° 0 mm 3 m/S 753 mmHg 81%
07:00 +22°C° 0 mm 3 m/S 753 mmHg 75%
08:00 +25°C° 0 mm 3 m/S 753 mmHg 68%
09:00 +26°C° 0 mm 3 m/S 753 mmHg 62%
10:00 +27°C° 0 mm 3 m/S 753 mmHg 59%
11:00 +28°C° 0 mm 3 m/S 753 mmHg 56%
12:00 +29°C° 0 mm 3 m/S 753 mmHg 53%
13:00 +29°C° 0 mm 3 m/S 753 mmHg 53%
14:00 +29°C° 0 mm 3 m/S 753 mmHg 52%
15:00 +29°C° 0 mm 3 m/S 753 mmHg 51%
16:00 +29°C° 0 mm 3 m/S 753 mmHg 57%
17:00 +28°C° 0 mm 3 m/S 753 mmHg 62%
18:00 +27°C° 0 mm 2 m/S 753 mmHg 68%
19:00 +25°C° 0 mm 2 m/S 753 mmHg 73%
20:00 +23°C° 0 mm 2 m/S 753 mmHg 77%
21:00 +21°C° 0 mm 2 m/S 753 mmHg 81%
22:00 +20°C° 0 mm 2 m/S 753 mmHg 79%
23:00 +20°C° 0 mm 2 m/S 753 mmHg 76%

21 Juni, Montag

Zeit Temperatur Niederschläge Wind Luftdruck Luftfeuchtigkeit
00:00 +19°C° 0 mm 2 m/S 753 mmHg 74%
01:00 +19°C° 0.3 mm 2 m/S 753 mmHg 78%
02:00 +19°C° 0.3 mm 2 m/S 753 mmHg 81%
03:00 +18°C° 0.3 mm 2 m/S 753 mmHg 85%
04:00 +19°C° 0.2 mm 2 m/S 753 mmHg 86%
05:00 +20°C° 0.2 mm 2 m/S 753 mmHg 86%
06:00 +20°C° 0.2 mm 2 m/S 753 mmHg 87%
07:00 +23°C° 0.1 mm 2 m/S 753 mmHg 79%
08:00 +25°C° 0.1 mm 2 m/S 753 mmHg 72%
09:00 +27°C° 0.1 mm 2 m/S 753 mmHg 64%
10:00 +28°C° 0.3 mm 3 m/S 752 mmHg 59%
11:00 +29°C° 0.3 mm 3 m/S 752 mmHg 54%
12:00 +30°C° 0.3 mm 3 m/S 752 mmHg 49%
13:00 +31°C° 0 mm 3 m/S 752 mmHg 48%
14:00 +32°C° 0 mm 4 m/S 751 mmHg 47%
15:00 +32°C° 0 mm 4 m/S 751 mmHg 47%
16:00 +30°C° 0 mm 3 m/S 751 mmHg 51%
17:00 +29°C° 0 mm 3 m/S 751 mmHg 56%
18:00 +28°C° 0 mm 2 m/S 751 mmHg 61%
19:00 +27°C° 0 mm 2 m/S 751 mmHg 66%
20:00 +25°C° 0 mm 2 m/S 751 mmHg 71%
21:00 +22°C° 0 mm 3 m/S 751 mmHg 76%
22:00 +21°C° 0 mm 2 m/S 751 mmHg 77%
23:00 +20°C° 0 mm 2 m/S 751 mmHg 78%

22 Juni, Dienstag

Zeit Temperatur Niederschläge Wind Luftdruck Luftfeuchtigkeit
00:00 +20°C° 0 mm 2 m/S 751 mmHg 79%
01:00 +19°C° 0 mm 2 m/S 751 mmHg 78%
02:00 +19°C° 0 mm 3 m/S 751 mmHg 77%
03:00 +19°C° 0 mm 3 m/S 751 mmHg 76%
04:00 +20°C° 0 mm 3 m/S 751 mmHg 76%
05:00 +21°C° 0 mm 3 m/S 751 mmHg 75%
06:00 +21°C° 0 mm 3 m/S 751 mmHg 75%
07:00 +24°C° 0 mm 3 m/S 751 mmHg 70%
08:00 +26°C° 0 mm 3 m/S 751 mmHg 65%
09:00 +28°C° 0 mm 3 m/S 751 mmHg 61%
10:00 +29°C° 0 mm 3 m/S 751 mmHg 57%
11:00 +30°C° 0 mm 3 m/S 751 mmHg 53%
12:00 +31°C° 0 mm 3 m/S 752 mmHg 49%
13:00 +33°C° 0 mm 3 m/S 752 mmHg 48%
14:00 +33°C° 0 mm 3 m/S 752 mmHg 46%
15:00 +33°C° 0 mm 3 m/S 752 mmHg 45%
16:00 +31°C° 0 mm 2 m/S 751 mmHg 50%
17:00 +31°C° 0 mm 2 m/S 751 mmHg 55%
18:00 +30°C° 0 mm 2 m/S 751 mmHg 60%
19:00 +28°C° 0 mm 2 m/S 751 mmHg 65%
20:00 +27°C° 0 mm 2 m/S 752 mmHg 69%
21:00 +25°C° 0 mm 2 m/S 752 mmHg 73%
22:00 +24°C° 0 mm 2 m/S 752 mmHg 73%
23:00 +23°C° 0 mm 2 m/S 752 mmHg 74%

23 Juni, Mittwoch

Zeit Temperatur Niederschläge Wind Luftdruck Luftfeuchtigkeit
00:00 +23°C° 0 mm 1 m/S 752 mmHg 74%
01:00 +22°C° 0 mm 1 m/S 753 mmHg 76%
02:00 +22°C° 0 mm 1 m/S 753 mmHg 78%
03:00 +21°C° 0 mm 1 m/S 753 mmHg 80%
04:00 +22°C° 0 mm 1 m/S 753 mmHg 79%
05:00 +23°C° 0 mm 1 m/S 754 mmHg 78%
06:00 +24°C° 0 mm 2 m/S 754 mmHg 77%
07:00 +25°C° 0 mm 2 m/S 754 mmHg 72%
08:00 +27°C° 0 mm 2 m/S 754 mmHg 66%
09:00 +28°C° 0 mm 2 m/S 754 mmHg 61%
10:00 +29°C° 0 mm 2 m/S 754 mmHg 57%
11:00 +30°C° 0 mm 2 m/S 754 mmHg 52%
12:00 +31°C° 0 mm 2 m/S 754 mmHg 48%
13:00 +31°C° 0 mm 2 m/S 754 mmHg 48%
14:00 +31°C° 0 mm 2 m/S 754 mmHg 47%
15:00 +31°C° 0 mm 2 m/S 754 mmHg 47%
16:00 +30°C° 0 mm 2 m/S 754 mmHg 54%
17:00 +29°C° 0 mm 2 m/S 754 mmHg 61%
18:00 +28°C° 0 mm 2 m/S 754 mmHg 68%
19:00 +26°C° 0 mm 2 m/S 754 mmHg 75%
20:00 +25°C° 0 mm 2 m/S 754 mmHg 81%
21:00 +23°C° 0 mm 2 m/S 754 mmHg 88%
22:00 +21°C° 0 mm 2 m/S 754 mmHg 89%
23:00 +21°C° 0 mm 2 m/S 754 mmHg 91%
Mehr zeigen

Wir brauchen deine Erlaubnis

Meteoprog und unser Service Anbieter werden persönliche Daten aufbewahren, so wie Cookies, Geräte Bezeichnung oder ähnliche Technologien von deinem Gerät und Prozess, so wie Persönliche Daten Inhalte und Werbungen, genauso wie social Media und den Verkehr zu analysieren.

  • Aufbewahrung und/oder Zugang zu deiner Geräte Informationen.

    Cookies, Geräte Bezeichnung oder andere Informationen, können aufbewahrt oder Zugang zu deinem Gerät erhalten, für den Grund, der oben angegeben wird.

  • Personalisierte Werbung und Inhalte, Messungen, Einblick in das Publikum und Produkt Entwicklung.

    Werbungen und Inhalte können personalisiert werden, basierend auf ein Profil. Mehr Daten können besser personalisierte Werbungen und Inhalte hinzufügen. Werbung und Inhalte können gezeigt und gemessen werden. Einblicke über das Publikum, welche die Werbung gesehen haben und den Inhalt, können abgeleitet werden. So wie Daten können genutzt werden, um es zu verbessern oder die Benutzer Erfahrung zu verbessern das System und die Software.

Wenn du “Ich stimme zu” klickst, erlaubst du uns, die Cookies zu benutzen die Geräte Bezeichnung, den Web oder ähnliche Technologien zu benutzen. Deine Settings, können in deinem Gerät bei deinem Browser geändert werden.

Für den bestimmten Zweck, berechtigten Interessen beruhen darauf, mehr als auf den Inhalt. Du kannst mehr darüber in unseren Privaten und Cookie Politik lesen.